Header for Extended Forecast Station List Page

Search by: ID | Name | Date | Parm | Value | Avg | % Avg
Sort by: ID | Name | Date | Parm | Value | Avg | % Avg

Enter search or view all records.

Click on id for station plot
#IDNameDateParmValueAvg% Avg
0LYDM8KOOTENAI-LIBBY DAM05-20-2019INFLOW (KAF)3416525365
1LEOI1KOOTENAI-AT LEONIA05-20-2019DISCHARGE (KAF)2897467162
2BFEI1KOOTENAI-AT BONNERS FERRY05-20-2019STAGE (FT)MMM
3FCFM8NF FLATHEAD-NEAR COLUMBIA FALLS05-20-2019DISCHARGE (KAF)866125869
4WGCM8MF FLATHEAD-NEAR WEST GLACIER05-20-2019DISCHARGE (KAF)939121178
5HHWM8SF FLATHEAD-HUNGRY HORSE DAM05-20-2019INFLOW (KAF)1057137177
6CFMM8FLATHEAD-AT COLUMBIA FALLS05-20-2019DISCHARGE (KAF)2750323885
7DLGM8CLARK FORK-AT DEER LODGE05-20-2019DISCHARGE (KAF)8859149
8DRMM8CLARK FORK-NR DRUMMOND05-20-2019DISCHARGE (KAF)294MM
9RCCM8ROCK CREEK-NEAR CLINTON05-20-2019DISCHARGE (KAF)231216107
10BONM8BLACKFOOT-NEAR BONNER05-20-2019DISCHARGE (KAF)57561194
11ABOM8CLARK FORK-ABOVE MISSOULA05-20-2019DISCHARGE (KAF)11481098105
12BITM8BITTERROOT-NEAR MISSOULA05-20-2019DISCHARGE (KAF)78495782
13BELM8CLARK FORK-BELOW MISSOULA05-20-2019DISCHARGE (KAF)1940209493
14STRM8ST. REGIS-NEAR ST. REGIS05-20-2019DISCHARGE (KAF)11413485
15SRGM8CLARK FORK-AT ST REGIS05-20-2019DISCHARGE (KAF)2473273690
16KERM8FLATHEAD-KERR DAM05-20-2019INFLOW (KAF)3094401877
17NOXM8CLARK FORK-NOXON RAPIDS DAM05-20-2019INFLOW (KAF)5824692384
18CABI1CLARK FORK-CABINET GORGE DAM05-20-2019INFLOW (KAF)6391738687
19PRTI1PRIEST-NEAR PRIEST RIVER05-20-2019DISCHARGE (KAF)33249068
20ALFW1PEND OREILLE-ALBENI FALLS DAM05-20-2019INFLOW (KAF)6835827683
21HOPI1PEND OREILLE-PEND OREILLE LAKE NR HOPE05-20-2019LAKE ELEVATION (FT)MMM
22COEI1COEUR D ALENE-COEUR D ALENE LAKE05-20-2019INFLOW (KAF)720105468
23SPOW1SPOKANE-AT SPOKANE05-20-2019DISCHARGE (KAF)766MM
24LLKW1SPOKANE-AT LONGLAKE05-20-2019INFLOW (KAF)955153762
25SATI1ST MARIES-NEAR SANTA05-20-2019DISCHARGE (KAF)325064
26SJMI1ST JOE-AT ST MARIES05-20-2019STAGE (FT)MMM
27CIBW1COLUMBIA-AT INTL BOUNDARY05-20-2019DISCHARGE (KAF)25557MM
28LAUW1KETTLE-AT LAURIER05-20-2019DISCHARGE (KAF)656109260
29GCDW1COLUMBIA-GRAND COULEE DAM05-20-2019INFLOW (KAF)272373882470
30CHJW1COLUMBIA-CHIEF JOSEPH DAM05-20-2019INFLOW (KAF)252092918286
31TONW1OKANOGAN-NEAR TONASKET05-20-2019DISCHARGE (KAF)512115444
32PATW1METHOW-NEAR PATEROS05-20-2019DISCHARGE (KAF)32764751
33WELW1COLUMBIA-WELLS DAM05-20-2019INFLOW (KAF)260793131183
34CHDW1CHELAN-LAKE CHELAN DAM05-20-2019INFLOW (KAF)41882051
35RRHW1COLUMBIA-ROCKY REACH DAM05-20-2019INFLOW (KAF)264093195783
36ARDW1ENTIAT-NEAR ARDENVOIR05-20-2019DISCHARGE (KAF)7915950
37PESW1WENATCHEE-AT PESHASTIN05-20-2019DISCHARGE (KAF)676106563
38WANW1COLUMBIA-WANAPUM DAM05-20-2019INFLOW (KAF)271173857570
39PRWW1COLUMBIA-PRIEST RAPIDS DAM05-20-2019INFLOW (KAF)271283944369
40KEDW1YAKIMA-KEECHELUS LAKE05-20-2019INFLOW (KAF)336451
41KADW1KACHESS-KACHESS DAM05-20-2019INFLOW (KAF)265746
42EASW1YAKIMA-AT EASTON05-20-2019DISCHARGE (KAF)788592
43CLUW1CLE ELUM-CLE ELUM LAKE05-20-2019INFLOW (KAF)11825746
44TNAW1TEANAWAY-BELOW FORKS05-20-2019DISCHARGE (KAF)274462
45UMTW1YAKIMA-AT UMTANUM05-20-2019DISCHARGE (KAF)30179138
46BUDW1BUMPING-BUMPING LAKE DAM05-20-2019INFLOW (KAF)418250
47CLFW1NACHES-NEAR CLIFFDEL05-20-2019DISCHARGE (KAF)14024258
48RILW1TIETON-RIMROCK LAKE NEAR RIMROCK05-20-2019INFLOW (KAF)11215174
49NACW1NACHES-NEAR NACHES05-20-2019DISCHARGE (KAF)16735747
50PARW1YAKIMA-NEAR PARKER05-20-2019DISCHARGE (KAF)13526252
51KIOW1YAKIMA-AT KIONA05-20-2019DISCHARGE (KAF)37559763
52IPDI1HENRYS FORK-ISLAND PARK DAM05-20-2019INFLOW (KAF)189188101
53CHEI1FALL RIVER-NEAR CHESTER05-20-2019DISCHARGE (KAF)284226126
54ANTI1HENRYS FORK-AT ST. ANTHONY05-20-2019DISCHARGE (KAF)581479121
55TEAI1TETON-NEAR ST. ANTHONY05-20-2019DISCHARGE (KAF)393316124
56REXI1HENRYS FORK-AT REXBURG05-20-2019DISCHARGE (KAF)731563130
57JLKW4SNAKE-JACKSON LAKE AT DAM05-20-2019INFLOW (KAF)66667399
58JKSW4SNAKE-NEAR JACKSON05-20-2019DISCHARGE (KAF)1551164494
59ALPW4SNAKE-NEAR ALPINE05-20-2019DISCHARGE (KAF)1896203693
60PLDI1SF SNAKE-PALISADES DAM05-20-2019INFLOW (KAF)2667277796
61HEII1SNAKE-NEAR HEISE05-20-2019DISCHARGE (KAF)2861293597
62RIDI1WILLOW CREEK-RIRIE DAM05-20-2019INFLOW (KAF)3216204
63SIFI1SNAKE-AB EAGLE ROCK NR IDAHO FALLS05-20-2019DISCHARGE (KAF)22362168103
64SHYI1SNAKE-NEAR SHELLEY05-20-2019DISCHARGE (KAF)19971847108
65SNAI1SNAKE-AT BLACKFOOT05-20-2019DISCHARGE (KAF)14211318108
66BFTI1SNAKE-NEAR BLACKFOOT05-20-2019DISCHARGE (KAF)13851203115
67PIHI1PORTNEUF-AT POCATELLO05-20-2019DISCHARGE (KAF)5035142
68AFRI1SNAKE-AMERICAN FALLS RESERVOIR05-20-2019INFLOW (KAF)19661817108
69MILI1SNAKE-AT MILNER05-20-2019DISCHARGE (KAF)142122116
70HOTI1BRUNEAU-NEAR HOT SPRINGS05-20-2019DISCHARGE (KAF)133102131
71SWAI1SNAKE-BELOW SWAN FALLS05-20-2019DISCHARGE (KAF)1975200598
72HWRI1BIG LOST-AT HOWELL RANCH NEAR CHILLY05-20-2019DISCHARGE (KAF)196145135
73MACI1BIG LOST-MACKAY RESERVOIR NEAR MACKAY05-20-2019INFLOW (KAF)196143137
74HALI1BIG WOOD-AT HAILEY05-20-2019DISCHARGE (KAF)216185117
75MAGI1BIG WOOD-MAGIC DAM05-20-2019INFLOW (KAF)193134145
76LWRI1LITTLE WOOD-LITTLE WOOD DAM05-20-2019INFLOW (KAF)7046152
77OWYO3OWYHEE-OWYHEE DAM05-20-2019INFLOW (KAF)188101186
78ARAI1SF BOISE-ANDERSON RANCH DAM05-20-2019INFLOW (KAF)30431497
79LUCI1BOISE-LUCKY PEAK DAM05-20-2019INFLOW (KAF)1045MM
80BIGI1BOISE-AT GLENWOOD BRIDGE05-20-2019DISCHARGE (KAF)432336129
81PARI1BOISE-NEAR PARMA05-20-2019DISCHARGE (KAF)415300138
82WRMO3MALHEUR-WARM SPRINGS DAM05-20-2019INFLOW (KAF)336512
83BERO3MALHEUR-AGENCY VALLEY DAM05-20-2019INFLOW (KAF)3415226
84BULO3BULLY CREEK-BULLY CREEK DAM05-20-2019INFLOW (KAF)M0M
85VALO3MALHEUR-NEAR VALE05-20-2019DISCHARGE (KAF)1818102
86CSDI1NF PAYETTE-CASCADE DAM05-20-2019INFLOW (KAF)355314113
87DEDI1DEADWOOD-NEAR LOWMAN05-20-2019INFLOW (KAF)929894
88EMMI1PAYETTE-NEAR EMMETT05-20-2019DISCHARGE (KAF)929875106
89WSRI1WEISER-NEAR WEISER05-20-2019DISCHARGE (KAF)186167111
90WEII1SNAKE-AT WEISER05-20-2019DISCHARGE (KAF)37743554106
91BRNI1SNAKE-BROWNLEE DAM05-20-2019INFLOW (KAF)40853771108
92WHBI1SALMON-AT WHITEBIRD05-20-2019DISCHARGE (KAF)4116460089
93TRYO3GRANDE RONDE-TROY05-20-2019DISCHARGE (KAF)57568084
94ANAW1SNAKE-NEAR ANATONE05-20-2019DISCHARGE (KAF)8788952192
95ORFI1CLEARWATER-AT OROFINO05-20-2019DISCHARGE (KAF)2164284076
96DWRI1NF CLEARWATER-DWORSHAK DAM05-20-2019INFLOW (KAF)1035149869
97SPDI1CLEARWATER-AT SPALDING05-20-2019DISCHARGE (KAF)4171420899
98LGDW1SNAKE-LOWER GRANITE DAM05-20-2019INFLOW (KAF)129591382694
99LGSW1SNAKE-LITTLE GOOSE DAM05-20-2019INFLOW (KAF)129371383094
100LMNW1SNAKE-LOWER MONUMENTAL DAM05-20-2019INFLOW (KAF)129731386594
101IHDW1SNAKE-ICE HARBOR DAM05-20-2019INFLOW (KAF)129801381194
102TCHW1WALLA WALLA-NEAR TOUCHET05-20-2019DISCHARGE (KAF)6926267
103MCDW1COLUMBIA-MCNARY DAM05-20-2019INFLOW (KAF)408285451175
104GIBO3UMATILLA-NEAR GIBBON05-20-2019DISCHARGE (KAF)3325134
105PDTO3UMATILLA-AT PENDLETON05-20-2019DISCHARGE (KAF)4235118
106MYKO3MCKAY CREEK-NEAR PILOT ROCK05-20-2019DISCHARGE (KAF)42166
107UMAO3UMATILLA-NEAR UMATILLA05-20-2019DISCHARGE (KAF)446701
108MONO3NF JOHN DAY-AT MONUMENT05-20-2019DISCHARGE (KAF)232208111
109SERO3JOHN DAY-AT SERVICE CK05-20-2019DISCHARGE (KAF)391289135
110JDAO3COLUMBIA-JOHN DAY DAM05-20-2019INFLOW (KAF)419835558576
111MODO3DESCHUTES-AT MOODY NR BIGGS05-20-2019DISCHARGE (KAF)1119114997
112TDAO3COLUMBIA-THE DALLES DAM05-20-2019INFLOW (KAF)423204980985
113PITW1KLICKITAT-NEAR PITT05-20-2019DISCHARGE (KAF)25031579
114HODO3HOOD-NEAR TUCKER BRIDGE05-20-2019DISCHARGE (KAF)9813275
115UNDW1WHITE SALMON-NEAR UNDERWOOD05-20-2019DISCHARGE (KAF)16522573
116BONO3COLUMBIA-BONNEVILLE DAM05-20-2019INFLOW (KAF)428845092884